Location: Stilling
(56.0622°N, 9.9882°E)
Time: 13:25:37
(UTC+00:00)

EO 1 Del DPAF - Pass Details

Date: 13 July 2020
Orbit: 512 x 518 km, 98.0° (Epoch: 06 August)

Event Time Altitude Azimuth Distance (km) Brightness Sun altitude
Rises 22:10:24 0° 18° (NNE) 2,646 7.8 -10.7°
Reaches altitude 10° 22:12:33 10° 23° (NNE) 1,753 6.7 -10.7°
Maximum altitude 22:16:15 53° 101° (ESE) 640 3.5 -10.9°
Enters shadow 22:19:05 16° 176° (S) 1,397 4.8 -11.0°
